Regional Weather Roundup
Issued by NWS Charleston, SC

Current Version | Previous Version | Text Only | Print | Product List | Glossary Off
Versions: 1 2 3 4 5 6 7 8 9 10 11 12 13 14 15 16 17 18 19 20 21 22 23 24 25 26 27 28 29 30 31 32 33 34 35 36 37 38 39 40 41 42 43 44 45 46 47 48 49 50

865
ASUS42 KCHS 060027
RWRCHS

REGIONAL WEATHER ROUNDUP
NATIONAL WEATHER SERVICE CHARLESTON SC
700 PM EST MON DEC 05 2016

NOTE: "FAIR" INDICATES FEW OR NO CLOUDS BELOW 12,000 FEET WITH NO
SIGNIFICANT WEATHER AND/OR OBSTRUCTIONS TO VISIBILITY.

NOT ALL STATIONS ARE QUALITY CONTROLLED. USE DATA WITH CAUTION...
ESPECIALLY DEWPOINT OBSERVATIONS.

SCZ027-030-031-034>040-042>050-060100-
...SOUTHEAST SOUTH CAROLINA...

CITY           SKY/WX    TMP DP  RH WIND       PRES   REMARKS
N CHARLESTON   HVY RAIN  58  56  93 NE9       29.98R FOG
6HR MIN TEMP:  58; 6HR MAX TEMP:  62; 6HR PCP:  0.54;

WATERFRONT PRK   N/A     58  57  96 NE6       29.95R
MOUNT PLEASANT RAIN      57  55  94 NE8       29.97R
JOHNS ISLAND   LGT RAIN  59  57  94 NE13      29.97R
PINOPOLIS        N/A     57  55  94 NE7       29.90R
MONCKS CORNER  RAIN      55  54  94 N6        29.99R
SUMMERVILLE    HVY RAIN N/A N/A N/A NE5       29.99S
BEAUFORT MCAS  LGT RAIN  58  57  97 NE9       29.96R
6HR MIN TEMP:  58; 6HR MAX TEMP:  61;

BEAUFORT ARPT  CLOUDY    59  57  94 NE10      29.96R FOG
HILTON HEAD IS CLOUDY    61  61 100 N8        29.96R FOG
WALTERBORO     HVY RAIN  57 N/A N/A CALM      30.00R
ALLENDALE      LGT RAIN  55  55 100 VRB5      29.96S

...SOUTHERN MIDLANDS AND PEE DEE...

CITY           SKY/WX    TMP DP  RH WIND       PRES   REMARKS
GEORGETOWN     NOT AVBL
KINGSTREE      RAIN      54  52  94 CALM      30.02R
ORANGEBURG     CLOUDY    54  52  93 NE9       29.97F
6HR MIN TEMP:  54; 6HR MAX TEMP:  60; 6HR PCP:  0.04;

BARNWELL       NOT AVBL
AIKEN          CLOUDY    52  50  93 NE7       30.00S
MANNING        LGT RAIN  52  52 100 NE5       30.00F
COLUMBIA       CLOUDY    58  50  75 NE5       29.98F
6HR MIN TEMP:  56; 6HR MAX TEMP:  59;

SUMTER         CLOUDY    54  52  94 E8        29.97F
6HR MIN TEMP:  54; 6HR MAX TEMP:  60; 6HR PCP:  0.02;

FLORENCE       CLOUDY    57  50  77 NE3       30.03R
6HR MIN TEMP:  56; 6HR MAX TEMP:  63;

MYRTLE BEACH   CLOUDY    59  52  77 VRB6      30.02S
N MYRTLE BEACH MOCLDY    57  52  83 NE7       30.00F
6HR MIN TEMP:  57; 6HR MAX TEMP:  61;


$$

GAZ063-065-086>088-099>101-113>116-118-119-134>141-150-060100-
...SOUTHEAST GEORGIA...

CITY           SKY/WX    TMP DP  RH WIND       PRES   REMARKS
SAVANNAH ARPT  CLOUDY    60  57  89 NE8       29.95R FOG
6HR MIN TEMP:  60; 6HR MAX TEMP:  62; 6HR PCP:  0.09;

HUNTER AAF     LGT RAIN  61  61 100 NE6       29.93R FOG
6HR MIN TEMP:  60; 6HR MAX TEMP:  62; 6HR PCP: TRACE;

FORT STEWART   CLOUDY    60  60  97 CALM      29.91R FOG
6HR MIN TEMP:  60; 6HR MAX TEMP:  61; 6HR PCP:  0.02;

STATESBORO     RAIN      57  57  99 CALM      29.95R
SYLVANIA       RAIN     N/A N/A N/A E5        29.95S
CLAXTON        LGT RAIN N/A N/A N/A NE5       29.95R

...CSRA...CENTRAL AND FAR SOUTHEAST GEORGIA...

CITY           SKY/WX    TMP DP  RH WIND       PRES   REMARKS
THOMSON        CLOUDY    55  55 100 CALM      30.00S
AUGUSTA-BUSH   CLOUDY    57  53  86 NE9       29.95F
6HR MIN TEMP:  55; 6HR MAX TEMP:  59; 6HR PCP:  0.01;

AUGUSTA-DANIEL LGT RAIN  56  51  84 NE8       29.96F
SWAINSBORO     HVY RAIN  55  54  94 NE5       29.96R
VIDALIA        LGT RAIN  59  59 100 E13       29.90F
EASTMAN        RAIN      57  57 100 NE5       29.94S
HAZLEHURST     CLOUDY    60  60 100 NE7       29.87S
ALMA           RAIN      60  60 100 E5        29.88F FOG
6HR MIN TEMP:  59; 6HR MAX TEMP:  62; 6HR PCP:  0.16;

WAYCROSS       TSTM      68  68 100 NE5       29.88F
JESUP          HVY RAIN  64  64 100 E9        29.90F
BAXLEY         RAIN      61  61 100 E7        29.90R
BRUNSWICK      CLOUDY    64  64 100 NE6       29.93R VSB 1
SAINT SIMONS   FOG       65  64  97 NE8       29.90R VSB 1
6HR MIN TEMP:  65; 6HR MAX TEMP:  77;


$$

SCZ027-028-034-036>038-045-046-048>050-GAZ119-141-060100-
...LAKE AND SUPPLEMENTAL COASTAL OBSERVATIONS...

STATION/POSITION TIME  TEMP    WIND        PRES    WAVE   SWELL
                       AIR SEA DIR/SP/G            HT/PER HT/PER/DIR
                 (UTC) (F)     (DEG/KT/KT) (MB)    (FT/S) (FT/S/D)
WINYAH BAY       2345   59      60/  8     1015.0S
LAKE MURRAY      2350   56      50/  2/  4 1014.9F
ACE BASIN NERRS  2345   58        CALM     1014.0R
FORT PULASKI     0000   60 62   70/ 12/ 14 1014.0
SAPELO ISLAND    0000   63      40/  7     1013.0

$$

ANZ835-935-AMZ111-154-330-350-352-354-370-450-454-472-060100-
...C-MAN AND BUOY OBSERVATIONS...

STATION/POSITION TIME  TEMP    WIND        PRES    WAVE   SWELL
                       AIR SEA DIR/SP/G            HT/PER HT/PER/DIR
                 (UTC) (F)     (DEG/KT/KT) (MB)    (FT/S) (FT/S/D)
BUOY 41004       2350   67 73   50/ 16/ 17 1013.5F   4/ 6   2/110/ 9
BUOY 41008       2350   65 65   40/ 10/ 14 1012.7R   3/ 6   2/170/ 6
FOLLY BEACH CMAN 0000   59      60/ 17/ 18 1014.9R
CAPERS NEARSHORE 0008   59 62   60/ 16/ 23 1014.6R
FRIPP NEARSHORE  0008   61 62   60/ 14/ 17 1014.2R


STATION/POSITION TIME  TEMP    WIND        PRES    WAVE   SWELL
                       AIR SEA DIR/SP/G            HT/PER HT/PER/DIR
                 (UTC) (F)     (DEG/KT/KT) (MB)    (FT/S) (FT/S/D)
5E ST. MARYS GA  0000      66                N/A     2/ 5
FRYING PAN BUOY  0010   66 74   60/ 16/ 21 1015.8
BUOY 41025       2350   57 71   20/ 17/ 21 1016.6R   5/ 8   2/160/ 8
CAPE LOOKOUT NC  0000   56      50/ 20/ 22 1016.5R
BUOY 41002       2350   73 74  190/ 17/ 21 1015.0F   6/ 6   2/ 20/10
BUOY 41010       NOT AVBL
ST AUGUSTINE FL  0000   70 68  170/  9/ 10 1012.8S


$$




USA.gov is the U.S. government's official web portal to all federal, state and local government web resources and services.